星链-1361 (STARLINK-1361 )

导读 | 豆包AI

STARLINK-1361是美国SpaceX公司星链星座的一颗互联网通信卫星,属于星链第一代V1.0批次,于2020年4月22日发射升空。卫星运行在近地轨道,配备相控阵天线与氪离子推进系统,可提供全球低延迟宽带接入服务,是星链星座规模化组网过程中的重要组成部分,支撑星链实现全球覆盖的卫星互联网布局。

基本信息
目录编号:
45567
目录名称:
STARLINK-1361
国际标识:
2020-025AN
轨道中心:
EARTH
卫星名称:
星链-1361
卫星全名:
星链-1361 (STARLINK-1361 )
卫星状态:
在轨 (已飞行2197 天)
发射日期:
2020-04-22 UTC
国别 :
美国 (US)
星等 :
--
轨道信息
数据来源 国际轨道数据
星历时间: 2026-04-28T20:51:56+0800
10小时前
查看轨道信息
半长轴: 6777.871km
偏心率: 0.0001406
轨道倾角: 53.046°
近地点辐角 293.533°
升交点赤经 194.040°
平近点角 66.553°
近地点: 398.781km
远地点: 400.687km
周期: 92.555分钟
每日圈数: 15.558325
详细信息
固有亮度:
5
最大亮度:
2.5
卫星平台:
Starlink V1.0
覆盖范围:
全球
运营商:
太空探索技术公司
运营商所在国:
美国
制造商(研发单位):
太空探索技术公司
制造商所在国:
美国
使用方式:
暂无
卫星简介
星链(Starlink)计划是由太空探索技术公司(SpaceX)提出的一个巨型低轨卫星互联网星座项目,计划在2019年至2024年间在太空搭建由约1.2万颗卫星组成的“星链”网络,其中1584颗将部署在地球上空550千米处的近地轨道,并从2020年开始工作。该卫星仍在工作。
2D轨道图
3D轨道图
轨道高度分析图
轨道倾角分析图
轨道综合分析图
查看轨道综合分析图